Location: Unspecified
(0.0000°N, 0.0000°E)
Time: 13:15:03
(UTC+01:00)

Amateur Radio Satellites - All Passes

Search period start: 28 March 2015 12:45
Search period end: 29 March 2015 13:45
Location: Unspecified, 0.0000°N, 0.0000°E

Satellite Date Start Highest point End Downlink Frequencies (MHz)
Time Altitude Azimuth
SRMSAT 28 Mar 12:51:11 12:57:10 68° 339° (NNW) 13:03:09 437.500
ESTCUBE 1 28 Mar 12:52:33 12:55:27 16° 280° (W) 12:58:08 437.505/2401.250
BUGSAT 1 28 Mar 13:01:29 13:02:50 11° 260° (W) 13:03:52 437.445
YUBILEINY 28 Mar 13:04:31 13:11:36 29° 95° (E) 13:19:02 435.215
ITUPSAT 1 28 Mar 13:31:22 13:34:39 19° 101° (E) 13:38:08 437.325
PCSat 28 Mar 13:32:43 13:37:24 31° 110° (ESE) 13:42:10 145.827
VERMONT LUNAR 28 Mar 13:33:19 13:33:40 10° 40° (NE) 13:34:12 437.305
JUGNU 28 Mar 13:46:23 13:50:36 19° 345° (NNW) 13:54:46 437.505
Oscar 19 28 Mar 13:55:23 14:00:24 57° 79° (ENE) 14:05:25 437.125/150
Gurwin Techsat 1B 28 Mar 14:02:48 14:03:40 11° 80° (E) 14:05:03 435.225
SWISSCUBE 28 Mar 14:18:27 14:23:12 84° 284° (WNW) 14:27:59 437.505
BEESAT 28 Mar 14:21:40 14:26:27 84° 282° (WNW) 14:31:13 436.000
SRMSAT 28 Mar 14:41:37 14:46:35 26° 343° (NNW) 14:51:28 437.500
KKS-1 28 Mar 14:53:27 14:57:15 29° 101° (ESE) 15:01:09 437.445
ITAMSAT 1 28 Mar 14:57:26 15:02:40 76° 78° (ENE) 15:07:54 435.822/435.867
YUBILEINY 28 Mar 15:00:27 15:08:18 35° 275° (W) 15:15:57 435.215
O/OREOS (USA 219) 28 Mar 15:00:45 15:03:56 20° 74° (ENE) 15:07:15 437.305
VERMONT LUNAR 28 Mar 15:08:06 15:11:23 44° 223° (SW) 15:14:40 437.305
ITUPSAT 1 28 Mar 15:08:46 15:12:26 21° 281° (W) 15:15:57 437.325
PCSat 28 Mar 15:17:07 15:20:43 17° 292° (WNW) 15:24:02 145.827
STARS 28 Mar 15:28:17 15:32:33 50° 102° (ESE) 15:36:53 437.465
PHONESAT 2.4 28 Mar 15:36:46 15:40:21 89° 269° (W) 15:43:58 2401.200-2431.200
Gurwin Techsat 1B 28 Mar 15:38:30 15:43:37 46° 258° (WSW) 15:48:40 435.225
JUGNU 28 Mar 15:39:04 15:40:33 11° 354° (N) 15:41:58 437.505
JAS-2 28 Mar 15:39:12 15:40:35 11° 76° (ENE) 15:42:39 435.910
HORYU 2 28 Mar 15:42:27 15:46:17 30° 79° (E) 15:50:10 437.375
AO-7 28 Mar 15:52:31 15:59:28 31° 76° (ENE) 16:06:38 29.400- 29.500
MOZHAYETS 4 28 Mar 16:21:29 16:22:21 11° 100° (E) 16:23:37
KKS-1 28 Mar 16:31:52 16:33:49 12° 280° (W) 16:35:26 437.445
RS-15 28 Mar 16:33:07 16:37:12 13° 118° (ESE) 16:42:30 29.354- 29.394
SRMSAT 28 Mar 16:33:49 16:36:28 13° 351° (N) 16:39:02 437.500
O/OREOS (USA 219) 28 Mar 16:40:14 16:43:14 17° 254° (WSW) 16:46:02 437.305
AIST 1 28 Mar 16:41:27 16:45:32 46° 266° (W) 16:49:37
SO-50 28 Mar 17:09:58 17:11:52 13° 114° (ESE) 17:14:04 436.795
JAS-2 28 Mar 17:19:33 17:25:20 59° 259° (W) 17:31:51 435.910
HORYU 2 28 Mar 17:21:15 17:22:50 11° 260° (W) 17:24:04 437.375
JUGNU 28 Mar 17:29:40 17:30:44 10° 5° (N) 17:31:51 437.505
AO-7 28 Mar 17:44:40 17:52:09 35° 255° (WSW) 17:59:23 29.400- 29.500
AUBIESAT-1 28 Mar 17:45:56 17:50:27 54° 105° (ESE) 17:54:42 437.475
MOZHAYETS 4 28 Mar 17:55:17 17:59:30 34° 281° (W) 18:03:39
M-CUBED/EXP-1 PRIME 28 Mar 18:09:09 18:13:48 60° 285° (WNW) 18:18:08 437.505
RS-15 28 Mar 18:38:57 18:50:08 83° 291° (WNW) 19:01:01 29.354- 29.394
Cubesat XI-IV 28 Mar 18:48:13 18:53:34 65° 78° (ENE) 18:58:53 437.490
CUTE-I 28 Mar 18:48:25 18:53:45 64° 78° (ENE) 18:59:04 437.470
SO-50 28 Mar 18:48:28 18:52:17 27° 294° (WNW) 18:56:06 436.795
JUGNU 28 Mar 19:16:47 19:20:42 18° 14° (NNE) 19:24:40 437.505
GONETS M04 28 Mar 19:17:03 19:25:22 53° 94° (E) 19:33:45
PRISM 28 Mar 19:21:53 19:26:01 77° 282° (WNW) 19:30:07 437.425
CUBESAT XI-V 28 Mar 19:38:51 19:43:05 37° 281° (W) 19:47:18 437.345
STRAND 1 28 Mar 19:57:03 20:02:00 54° 282° (WNW) 20:06:59 437.568
SRMSAT 28 Mar 20:14:07 20:17:01 14° 11° (N) 20:20:01 437.500
BRITE-PL 28 Mar 20:26:45 20:31:16 30° 81° (E) 20:35:36 437.365/2234.400
HO-68 28 Mar 20:48:23 20:54:46 37° 77° (ENE) 21:01:17 435.675
AAUSAT CUBESAT 2 28 Mar 20:53:53 20:55:22 12° 80° (E) 20:57:08 437.432
SEEDS 28 Mar 20:54:27 20:57:29 20° 80° (E) 21:00:40 437.485
CUSAT 1 28 Mar 20:56:11 21:00:54 79° 96° (E) 21:04:25 437.405
ISS 28 Mar 21:02:02 21:05:18 67° 306° (NW) 21:08:31 145.825
BEESAT 2 28 Mar 21:02:13 21:05:35 26° 67° (ENE) 21:08:59 435.950
CINEMA 3 28 Mar 21:04:25 21:05:23 11° 82° (E) 21:06:43 145.822/145.860
JUGNU 28 Mar 21:04:35 21:10:09 42° 20° (NNE) 21:15:42 437.505
DOVE 4 28 Mar 21:13:28 21:17:56 40° 80° (E) 21:22:09 437.250
GONETS M04 28 Mar 21:16:21 21:22:10 18° 276° (W) 21:27:21
COMPASS 1 28 Mar 21:17:53 21:21:39 34° 79° (E) 21:25:28 437.405
GOMX 1 28 Mar 21:18:49 21:23:54 82° 78° (ENE) 21:28:34 467.674
DANDE 28 Mar 21:38:40 21:43:24 35° 272° (W) 21:46:58 436.750
BEESAT 3 28 Mar 21:40:02 21:43:59 61° 248° (WSW) 21:47:53 437.485
CANX-2 28 Mar 21:44:08 21:48:12 46° 259° (W) 21:52:14 2200.000
CUTE 1.7 + AOD 2 28 Mar 21:58:29 22:02:18 32° 259° (W) 22:06:03 437.475
SRMSAT 28 Mar 22:01:45 22:06:48 29° 18° (NNE) 22:11:54 437.500
BRITE-PL 28 Mar 22:06:09 22:09:36 17° 258° (WSW) 22:12:38 437.365/2234.400
AIST 2 28 Mar 22:07:09 22:11:12 56° 68° (ENE) 22:15:11 435.215
DELFI C3 28 Mar 22:13:05 22:16:59 50° 79° (E) 22:20:55 145.870
UKube-1 28 Mar 22:15:11 22:18:23 21° 79° (E) 22:21:44 .
DX 1 28 Mar 22:23:23 22:27:12 30° 79° (E) 22:31:03 434.975-435.025
AAUSAT CUBESAT 2 28 Mar 22:27:29 22:30:55 24° 260° (W) 22:34:14 437.432
ANTELSAT 28 Mar 22:29:08 22:32:20 19° 101° (E) 22:35:46 437.575/2403.000
HUMSAT D 28 Mar 22:29:46 22:32:41 19° 80° (E) 22:35:43 437.325/437.525
SEEDS 28 Mar 22:30:42 22:33:11 15° 260° (W) 22:35:28 437.485
HO-68 28 Mar 22:36:45 22:42:23 24° 257° (WSW) 22:47:42 435.675
CINEMA 3 28 Mar 22:38:38 22:42:36 29° 259° (WSW) 22:46:19 145.822/145.860
BEESAT 2 28 Mar 22:42:43 22:43:37 10° 246° (WSW) 22:44:14 435.950
Oscar 11 28 Mar 22:44:21 22:48:23 38° 259° (W) 22:52:21 145.826/435.025
DUCHIFAT 1 28 Mar 22:44:49 22:45:23 10° 100° (E) 22:46:18 145.980
FUNcube-1 28 Mar 22:52:45 22:56:58 72° 259° (W) 23:01:06 145.935
JUGNU 28 Mar 22:53:21 22:59:14 71° 201° (SSW) 23:05:06 437.505
UWE-3 28 Mar 22:54:23 22:58:32 49° 259° (W) 23:02:33 435.000/436.395/437.385
QB50P2 28 Mar 22:54:45 22:57:24 17° 101° (E) 23:00:15 145.880/145.840
CUBEBUG 2 28 Mar 22:57:28 23:01:24 34° 259° (WSW) 23:05:11 437.445
VELOX 1 28 Mar 22:59:03 23:02:59 31° 79° (E) 23:06:58 145.980
AISAT 28 Mar 23:03:05 23:07:13 37° 79° (ENE) 23:11:21 437.250
CUBEBUG 1 28 Mar 23:04:09 23:05:59 13° 80° (E) 23:08:08 437.445
ZACube-1 28 Mar 23:05:23 23:09:26 44° 259° (W) 23:13:23 437.345
POPSAT HIP 1 28 Mar 23:22:28 23:26:27 41° 101° (E) 23:30:31 437.405
UNISAT 6 28 Mar 23:23:47 23:28:28 76° 280° (W) 23:33:11 437.425
50 SAT 28 Mar 23:26:49 23:30:45 88° 80° (E) 23:34:38 437.505
BUGSAT 1 28 Mar 23:27:31 23:31:03 30° 101° (E) 23:34:41 437.445
ESTCUBE 1 28 Mar 23:29:07 23:33:13 35° 79° (E) 23:37:23 437.505/2401.250
NANOSAT C BR1 28 Mar 23:33:20 23:37:30 61° 101° (E) 23:41:43 145.865
TIGRISAT 28 Mar 23:34:36 23:39:11 56° 281° (WNW) 23:43:49 435.000
POLYITAN 1 28 Mar 23:36:34 23:40:48 71° 101° (ESE) 23:45:05 437.675
SRMSAT 28 Mar 23:50:13 23:56:08 79° 20° (NNE) 00:02:05 437.500
UKube-1 28 Mar 23:51:38 23:54:26 16° 259° (W) 23:57:00 .
DX 1 29 Mar 00:01:49 00:03:20 11° 260° (W) 00:04:32 434.975-435.025
ANTELSAT 29 Mar 00:05:21 00:09:00 22° 280° (W) 00:12:30 437.575/2403.000
HUMSAT D 29 Mar 00:05:55 00:08:21 15° 260° (W) 00:10:33 437.325/437.525
QB50P1 29 Mar 00:14:54 00:18:41 31° 281° (W) 00:22:26 145.935-145.965
DUCHIFAT 1 29 Mar 00:17:24 00:21:07 29° 281° (W) 00:24:48 145.980
QB50P2 29 Mar 00:30:05 00:33:12 19° 280° (W) 00:36:10 145.880/145.840
VELOX 1 29 Mar 00:37:57 00:39:27 11° 260° (W) 00:40:36 145.980
CUBEBUG 1 29 Mar 00:38:27 00:42:16 27° 259° (W) 00:45:58 437.445
JUGNU 29 Mar 00:43:32 00:48:26 27° 198° (SSW) 00:53:16 437.505
TISAT 1 29 Mar 00:44:06 00:48:13 48° 78° (ENE) 00:52:19 437.305
SPROUT 29 Mar 00:50:45 00:55:05 78° 79° (E) 00:59:22 437.525
ESTCUBE 1 29 Mar 01:09:11 01:10:01 10° 260° (W) 01:10:28 437.505/2401.250
YUBILEINY 29 Mar 01:36:48 01:45:18 58° 86° (E) 01:53:50 435.215
SRMSAT 29 Mar 01:39:56 01:45:24 38° 199° (SSW) 01:50:52 437.500
ITUPSAT 1 29 Mar 01:52:51 01:57:17 38° 78° (ENE) 03:01:44 437.325
ITAMSAT 1 29 Mar 01:56:31 01:58:15 12° 101° (E) 03:00:25 435.822/435.867
PCSat 29 Mar 03:08:15 03:13:39 84° 251° (WSW) 03:19:04 145.827
Oscar 19 29 Mar 03:29:00 03:34:04 55° 282° (WNW) 03:39:09 437.125/150
JUGNU 29 Mar 03:35:29 03:38:06 13° 190° (S) 03:40:39 437.505
Gurwin Techsat 1B 29 Mar 03:37:40 03:42:18 32° 101° (ESE) 03:47:02 435.225
SWISSCUBE 29 Mar 03:40:59 03:45:32 42° 259° (WSW) 03:50:02 437.505
VERMONT LUNAR 29 Mar 03:44:07 03:47:27 61° 318° (NW) 03:50:45 437.305
BEESAT 29 Mar 03:44:07 03:48:39 42° 258° (WSW) 03:53:09 436.000
KKS-1 29 Mar 04:05:58 04:10:12 43° 79° (ENE) 04:14:25 437.445
O/OREOS (USA 219) 29 Mar 04:10:50 04:14:57 34° 105° (ESE) 04:19:07 437.305
PHONESAT 2.4 29 Mar 04:17:25 04:20:58 76° 137° (SE) 04:24:29 2401.200-2431.200
SRMSAT 29 Mar 04:31:18 04:35:03 17° 193° (SSW) 04:38:45 437.500
ITAMSAT 1 29 Mar 04:32:52 04:37:41 39° 282° (WNW) 04:42:28 435.822/435.867
ITUPSAT 1 29 Mar 04:33:48 04:35:05 11° 260° (W) 04:35:58 437.325
YUBILEINY 29 Mar 04:36:43 04:42:07 17° 264° (W) 04:46:46 435.215
STARS 29 Mar 04:39:44 04:44:08 75° 78° (ENE) 04:48:30 437.465
HORYU 2 29 Mar 04:54:55 04:59:13 46° 102° (ESE) 05:03:34 437.375
RS-15 29 Mar 05:16:02 05:18:19 11° 62° (ENE) 05:22:22 29.354- 29.394
AO-7 29 Mar 05:17:53 05:25:47 51° 105° (ESE) 05:33:49 29.400- 29.500
Gurwin Techsat 1B 29 Mar 05:18:51 05:22:11 16° 281° (W) 05:25:13 435.225
MOZHAYETS 4 29 Mar 05:36:19 05:39:23 18° 80° (E) 05:42:39
AIST 1 29 Mar 05:48:31 05:52:30 32° 275° (W) 05:56:25
JAS-2 29 Mar 05:53:00 06:00:06 80° 102° (ESE) 06:06:23 435.910
SO-50 29 Mar 06:21:13 06:25:15 27° 66° (ENE) 06:29:19 436.795
SRMSAT 29 Mar 06:24:33 06:25:13 10° 184° (S) 06:25:51 437.500
AUBIESAT-1 29 Mar 06:48:09 06:51:32 47° 75° (ENE) 06:55:11 437.475
Cubesat XI-IV 29 Mar 06:51:26 06:53:07 12° 101° (E) 06:55:16 437.490
CUTE-I 29 Mar 06:51:34 06:53:08 12° 101° (E) 06:55:10 437.470
M-CUBED/EXP-1 PRIME 29 Mar 07:12:00 07:15:24 52° 255° (WSW) 07:19:03 437.505
AO-7 29 Mar 07:12:28 07:18:30 21° 284° (WNW) 07:24:04 29.400- 29.500
MOZHAYETS 4 29 Mar 07:13:02 07:16:30 21° 260° (W) 07:19:49
JUGNU 29 Mar 07:15:36 07:18:18 13° 170° (S) 07:21:06 437.505
RS-15 29 Mar 07:19:29 07:31:30 84° 69° (ENE) 07:43:50 29.354- 29.394
CUBESAT XI-V 29 Mar 07:21:15 07:24:27 19° 80° (E) 07:27:49 437.345
STRAND 1 29 Mar 07:51:50 07:55:44 23° 79° (E) 07:59:49 437.568
SO-50 29 Mar 08:02:35 08:05:41 16° 246° (WSW) 08:08:31 436.795
SRMSAT 29 Mar 08:13:47 08:15:34 11° 173° (S) 08:17:26 437.500
PRISM 29 Mar 08:25:50 08:30:00 67° 258° (WSW) 08:34:10 437.425
CUTE-I 29 Mar 08:28:08 08:33:09 43° 282° (WNW) 08:38:08 437.470
Cubesat XI-IV 29 Mar 08:28:08 08:33:09 42° 282° (WNW) 08:38:08 437.490
GONETS M04 29 Mar 08:50:08 08:58:59 83° 267° (W) 09:07:51
CUSAT 1 29 Mar 08:54:04 08:58:34 22° 88° (E) 09:04:11 437.405
CUBESAT XI-V 29 Mar 08:58:06 09:01:46 22° 259° (W) 09:05:17 437.345
JUGNU 29 Mar 09:03:00 09:07:58 28° 162° (SSE) 09:13:00 437.505
STRAND 1 29 Mar 09:30:51 09:34:50 22° 259° (WSW) 09:38:37 437.568
CUTE 1.7 + AOD 2 29 Mar 09:31:49 09:33:20 12° 100° (E) 09:35:09 437.475
ISS 29 Mar 09:35:23 09:38:33 65° 54° (NE) 09:41:45 145.825
RS-15 29 Mar 09:37:44 09:44:38 15° 242° (WSW) 09:50:11 29.354- 29.394
DANDE 29 Mar 09:38:16 09:43:46 47° 87° (E) 09:50:55 436.750
HO-68 29 Mar 09:40:15 09:46:18 31° 103° (ESE) 09:52:33 435.675
BRITE-PL 29 Mar 09:52:24 09:56:50 60° 101° (ESE) 10:01:42 437.365/2234.400
BEESAT 2 29 Mar 09:57:38 10:01:09 30° 112° (ESE) 10:04:45 435.950
AAUSAT CUBESAT 2 29 Mar 09:57:50 10:00:02 15° 100° (E) 10:02:30 437.432
SEEDS 29 Mar 10:00:01 10:03:30 25° 101° (E) 10:07:04 437.485
SRMSAT 29 Mar 10:01:13 10:05:37 21° 165° (SSE) 10:10:05 437.500
CINEMA 3 29 Mar 10:18:10 10:21:38 21° 101° (E) 10:25:23 145.822/145.860
Oscar 11 29 Mar 10:19:58 10:21:12 11° 100° (E) 10:22:47 145.826/435.025
COMPASS 1 29 Mar 10:22:48 10:26:47 42° 101° (E) 10:30:49 437.405
UWE-3 29 Mar 10:32:39 10:33:24 11° 100° (E) 10:34:33 435.000/436.395/437.385
DOVE 4 29 Mar 10:33:17 10:37:56 78° 101° (ESE) 10:42:56 437.250
CUBEBUG 2 29 Mar 10:34:39 10:37:19 16° 101° (E) 10:40:16 437.445
BEESAT 3 29 Mar 10:34:56 10:38:51 54° 292° (WNW) 10:42:48 437.485
CUSAT 1 29 Mar 10:35:23 10:41:04 37° 260° (W) 10:47:54 437.405
GOMX 1 29 Mar 10:42:04 10:46:31 49° 280° (W) 10:51:18 467.674
ZACube-1 29 Mar 10:42:17 10:43:15 11° 100° (E) 10:44:35 437.345
CANX-2 29 Mar 10:51:07 10:55:07 37° 281° (W) 10:59:05 2200.000
JUGNU 29 Mar 10:51:13 10:57:09 74° 159° (SSE) 11:03:08 437.505
CUTE 1.7 + AOD 2 29 Mar 11:05:29 11:09:09 27° 280° (W) 11:12:44 437.475
AIST 2 29 Mar 11:05:52 11:10:01 73° 112° (ESE) 11:14:12 435.215
DELFI C3 29 Mar 11:14:12 11:18:10 52° 101° (ESE) 11:22:08 145.870
DANDE 29 Mar 11:23:36 11:27:31 16° 256° (WSW) 11:31:26 436.750
UKube-1 29 Mar 11:23:53 11:27:30 27° 101° (ESE) 11:31:14 .
HO-68 29 Mar 11:27:50 11:33:54 29° 283° (WNW) 11:39:46 435.675
AAUSAT CUBESAT 2 29 Mar 11:32:18 11:35:34 21° 280° (W) 11:38:43 437.432
DX 1 29 Mar 11:33:00 11:37:03 40° 102° (ESE) 11:41:09 434.975-435.025
HUMSAT D 29 Mar 11:34:50 11:38:19 25° 101° (E) 11:41:57 437.325/437.525
SEEDS 29 Mar 11:37:14 11:39:12 12° 280° (W) 11:40:53 437.485
ANTELSAT 29 Mar 11:42:44 11:46:15 26° 80° (E) 11:49:50 437.575/2403.000
QB50P1 29 Mar 11:48:07 11:49:48 13° 80° (E) 11:51:46 145.935-145.965
SRMSAT 29 Mar 11:49:19 11:55:09 51° 160° (SSE) 12:00:59 437.500
DUCHIFAT 1 29 Mar 11:50:07 11:51:57 13° 80° (E) 11:54:04 145.980
Oscar 11 29 Mar 11:53:29 11:57:17 29° 281° (W) 12:01:02 145.826/435.025
CINEMA 3 29 Mar 11:55:13 11:58:43 20° 279° (W) 12:02:09 145.822/145.860
QB50P2 29 Mar 12:01:23 12:04:31 21° 80° (E) 12:07:46 145.880/145.840
FUNcube-1 29 Mar 12:02:23 12:06:47 52° 281° (W) 12:11:15 145.935
UWE-3 29 Mar 12:05:37 12:09:48 36° 281° (W) 12:14:04 435.000/436.395/437.385
CUBEBUG 2 29 Mar 12:10:01 12:13:52 25° 280° (W) 12:17:42 437.445
VELOX 1 29 Mar 12:10:57 12:15:09 46° 102° (ESE) 12:19:24 145.980
CUBEBUG 1 29 Mar 12:13:44 12:16:29 17° 101° (E) 12:19:27 437.445
AISAT 29 Mar 12:15:18 12:19:37 56° 102° (ESE) 12:23:58 437.250
ZACube-1 29 Mar 12:15:23 12:19:29 34° 281° (W) 12:23:37 437.345
50 SAT 29 Mar 12:25:51 12:29:55 86° 100° (E) 12:34:01 437.505
POPSAT HIP 1 29 Mar 12:29:18 12:33:27 53° 79° (ENE) 12:37:35 437.405
BUGSAT 1 29 Mar 12:31:09 12:35:02 36° 79° (E) 12:38:55 437.445
UNISAT 6 29 Mar 12:38:14 12:42:21 45° 259° (WSW) 12:46:25 437.425
NANOSAT C BR1 29 Mar 12:39:59 12:44:15 78° 79° (E) 12:48:27 145.865
JUGNU 29 Mar 12:40:42 12:46:16 41° 340° (NNW) 12:51:52 437.505
ESTCUBE 1 29 Mar 12:43:17 12:47:40 55° 101° (ESE) 12:52:05 437.505/2401.250
POLYITAN 1 29 Mar 12:43:48 12:48:05 89° 277° (W) 12:52:18 437.675
TIGRISAT 29 Mar 12:48:57 12:52:49 33° 259° (WSW) 12:56:36 435.000
UKube-1 29 Mar 13:01:50 13:03:34 12° 280° (W) 13:04:59 .
HUMSAT D 29 Mar 13:11:48 13:14:00 13° 279° (W) 13:15:56 437.325/437.525
YUBILEINY 29 Mar 13:20:27 13:21:49 11° 97° (E) 13:24:20 435.215
ANTELSAT 29 Mar 13:21:10 13:22:57 12° 260° (W) 13:24:27 437.575/2403.000
QB50P1 29 Mar 13:22:03 13:25:36 25° 259° (W) 13:29:01 145.935-145.965
DUCHIFAT 1 29 Mar 13:24:13 13:27:42 24° 259° (W) 13:31:03 145.980
QB50P2 29 Mar 13:37:43 13:40:19 15° 260° (W) 13:42:40 145.880/145.840
